Hourly Weather Cotiujenii Mari

Today, 23 July, Friday

Time Temperature Precipitation Wind Pressure Humidity
00:00 +16°C° 0 mm 2 mps 741 mmHg 73%
01:00 +16°C° 0 mm 2 mps 742 mmHg 73%
02:00 +15°C° 0 mm 2 mps 742 mmHg 74%
03:00 +15°C° 0 mm 2 mps 742 mmHg 76%
04:00 +15°C° 0 mm 2 mps 742 mmHg 78%
05:00 +15°C° 0 mm 1 mps 742 mmHg 80%
06:00 +16°C° 0 mm 2 mps 742 mmHg 75%
07:00 +18°C° 0 mm 2 mps 742 mmHg 70%
08:00 +19°C° 0 mm 2 mps 742 mmHg 65%
09:00 +21°C° 0 mm 3 mps 742 mmHg 60%
10:00 +22°C° 0 mm 3 mps 742 mmHg 55%
11:00 +24°C° 0 mm 3 mps 742 mmHg 50%
12:00 +25°C° 0 mm 3 mps 742 mmHg 48%
13:00 +26°C° 0 mm 4 mps 742 mmHg 46%
14:00 +26°C° 0 mm 4 mps 741 mmHg 44%
15:00 +26°C° 0 mm 4 mps 741 mmHg 47%
16:00 +26°C° 0 mm 4 mps 741 mmHg 49%
17:00 +26°C° 0 mm 3 mps 741 mmHg 52%
18:00 +24°C° 0 mm 3 mps 741 mmHg 57%
19:00 +23°C° 0 mm 2 mps 741 mmHg 61%
20:00 +21°C° 0 mm 2 mps 741 mmHg 66%
21:00 +21°C° 0 mm 1 mps 741 mmHg 68%
22:00 +20°C° 0 mm 1 mps 742 mmHg 70%
23:00 +19°C° 0 mm 1 mps 742 mmHg 72%

Tomorrow, 24 July, Saturday

Time Temperature Precipitation Wind Pressure Humidity
00:00 +19°C° 0 mm 1 mps 742 mmHg 72%
01:00 +19°C° 0 mm 1 mps 742 mmHg 73%
02:00 +18°C° 0 mm 1 mps 742 mmHg 73%
03:00 +18°C° 0 mm 1 mps 742 mmHg 74%
04:00 +18°C° 0 mm 1 mps 742 mmHg 75%
05:00 +18°C° 0 mm 1 mps 742 mmHg 75%
06:00 +19°C° 0 mm 1 mps 742 mmHg 71%
07:00 +20°C° 0 mm 1 mps 742 mmHg 67%
08:00 +22°C° 0 mm 1 mps 742 mmHg 63%
09:00 +23°C° 0 mm 1 mps 742 mmHg 59%
10:00 +24°C° 0 mm 1 mps 742 mmHg 54%
11:00 +25°C° 0 mm 1 mps 743 mmHg 49%
12:00 +26°C° 0 mm 1 mps 743 mmHg 47%
13:00 +27°C° 0 mm 1 mps 742 mmHg 44%
14:00 +27°C° 0 mm 1 mps 742 mmHg 42%
15:00 +26°C° 0 mm 2 mps 742 mmHg 46%
16:00 +26°C° 0 mm 2 mps 742 mmHg 51%
17:00 +25°C° 0 mm 2 mps 742 mmHg 55%
18:00 +24°C° 0 mm 2 mps 743 mmHg 59%
19:00 +23°C° 0 mm 2 mps 743 mmHg 64%
20:00 +21°C° 0 mm 1 mps 743 mmHg 68%
21:00 +21°C° 0 mm 1 mps 743 mmHg 69%
22:00 +20°C° 0 mm 1 mps 743 mmHg 69%
23:00 +18°C° 0 mm 0 mps 743 mmHg 70%

Day after tomorrow, 25 July, Sunday

Time Temperature Precipitation Wind Pressure Humidity
00:00 +17°C° 0 mm 0 mps 743 mmHg 71%
01:00 +17°C° 0 mm 0 mps 743 mmHg 71%
02:00 +17°C° 0 mm 0 mps 743 mmHg 72%
03:00 +17°C° 0 mm 0 mps 743 mmHg 73%
04:00 +16°C° 0 mm 0 mps 744 mmHg 74%
05:00 +16°C° 0 mm 0 mps 744 mmHg 75%
06:00 +20°C° 0 mm 1 mps 744 mmHg 70%
07:00 +22°C° 0 mm 1 mps 744 mmHg 65%
08:00 +23°C° 0 mm 1 mps 744 mmHg 61%
09:00 +25°C° 0 mm 2 mps 744 mmHg 56%
10:00 +26°C° 0 mm 2 mps 744 mmHg 52%
11:00 +27°C° 0 mm 2 mps 744 mmHg 48%
12:00 +28°C° 0 mm 2 mps 744 mmHg 47%
13:00 +28°C° 0 mm 3 mps 744 mmHg 45%
14:00 +28°C° 0 mm 3 mps 744 mmHg 44%
15:00 +28°C° 0 mm 3 mps 744 mmHg 46%
16:00 +28°C° 0 mm 2 mps 744 mmHg 48%
17:00 +28°C° 0 mm 2 mps 744 mmHg 50%
18:00 +26°C° 0 mm 2 mps 744 mmHg 55%
19:00 +24°C° 0 mm 2 mps 744 mmHg 59%
20:00 +23°C° 0 mm 2 mps 744 mmHg 64%
21:00 +21°C° 0 mm 2 mps 744 mmHg 64%
22:00 +21°C° 0 mm 2 mps 744 mmHg 65%
23:00 +20°C° 0 mm 2 mps 745 mmHg 66%

26 July, Monday

Time Temperature Precipitation Wind Pressure Humidity
00:00 +20°C° 0 mm 2 mps 745 mmHg 65%
01:00 +19°C° 0 mm 2 mps 744 mmHg 65%
02:00 +19°C° 0 mm 2 mps 744 mmHg 65%
03:00 +19°C° 0 mm 2 mps 745 mmHg 65%
04:00 +19°C° 0 mm 2 mps 745 mmHg 66%
05:00 +18°C° 0 mm 2 mps 745 mmHg 66%
06:00 +20°C° 0 mm 2 mps 745 mmHg 63%
07:00 +21°C° 0 mm 2 mps 745 mmHg 61%
08:00 +24°C° 0 mm 3 mps 745 mmHg 58%
09:00 +26°C° 0 mm 3 mps 745 mmHg 55%
10:00 +27°C° 0 mm 3 mps 745 mmHg 51%
11:00 +28°C° 0 mm 4 mps 745 mmHg 48%
12:00 +29°C° 0 mm 4 mps 745 mmHg 45%
13:00 +30°C° 0 mm 3 mps 745 mmHg 43%
14:00 +30°C° 0 mm 3 mps 745 mmHg 40%
15:00 +30°C° 0 mm 3 mps 745 mmHg 41%
16:00 +30°C° 0 mm 2 mps 745 mmHg 43%
17:00 +30°C° 0 mm 2 mps 745 mmHg 44%
18:00 +28°C° 0 mm 2 mps 744 mmHg 49%
19:00 +26°C° 0 mm 2 mps 744 mmHg 53%
20:00 +25°C° 0 mm 2 mps 744 mmHg 58%
21:00 +24°C° 0 mm 2 mps 744 mmHg 58%
22:00 +23°C° 0 mm 2 mps 744 mmHg 59%
23:00 +23°C° 0 mm 2 mps 745 mmHg 60%

27 July, Tuesday

Time Temperature Precipitation Wind Pressure Humidity
00:00 +21°C° 0 mm 2 mps 744 mmHg 60%
01:00 +21°C° 0 mm 2 mps 744 mmHg 60%
02:00 +20°C° 0 mm 2 mps 744 mmHg 60%
03:00 +20°C° 0 mm 2 mps 744 mmHg 61%
04:00 +20°C° 0 mm 2 mps 744 mmHg 61%
05:00 +20°C° 0 mm 2 mps 744 mmHg 62%
06:00 +23°C° 0 mm 2 mps 744 mmHg 59%
07:00 +24°C° 0 mm 3 mps 744 mmHg 57%
08:00 +26°C° 0 mm 3 mps 745 mmHg 54%
09:00 +27°C° 0 mm 4 mps 745 mmHg 50%
10:00 +29°C° 0 mm 4 mps 745 mmHg 46%
11:00 +30°C° 0 mm 5 mps 744 mmHg 42%
12:00 +32°C° 0 mm 5 mps 744 mmHg 41%
13:00 +32°C° 0 mm 5 mps 744 mmHg 40%
14:00 +33°C° 0 mm 6 mps 744 mmHg 39%
15:00 +33°C° 0 mm 5 mps 744 mmHg 41%
16:00 +33°C° 0 mm 5 mps 743 mmHg 43%
17:00 +33°C° 0 mm 5 mps 743 mmHg 45%
18:00 +30°C° 0 mm 5 mps 743 mmHg 48%
19:00 +29°C° 0 mm 4 mps 743 mmHg 52%
20:00 +27°C° 0 mm 4 mps 742 mmHg 56%
21:00 +26°C° 0.1 mm 3 mps 742 mmHg 60%
22:00 +24°C° 0.1 mm 3 mps 743 mmHg 63%
23:00 +23°C° 0.1 mm 2 mps 743 mmHg 67%

28 July, Wednesday

Time Temperature Precipitation Wind Pressure Humidity
00:00 +22°C° 0 mm 3 mps 743 mmHg 67%
01:00 +21°C° 0 mm 3 mps 742 mmHg 68%
02:00 +21°C° 0 mm 4 mps 742 mmHg 68%
03:00 +21°C° 0.1 mm 3 mps 742 mmHg 71%
04:00 +20°C° 0.1 mm 2 mps 742 mmHg 74%
05:00 +21°C° 0.1 mm 1 mps 743 mmHg 76%
06:00 +21°C° 0.1 mm 3 mps 743 mmHg 71%
07:00 +23°C° 0.1 mm 4 mps 742 mmHg 66%
08:00 +25°C° 0.1 mm 5 mps 742 mmHg 61%
09:00 +27°C° 0.1 mm 5 mps 742 mmHg 58%
10:00 +28°C° 0.1 mm 5 mps 742 mmHg 55%
11:00 +30°C° 0.1 mm 5 mps 743 mmHg 51%
12:00 +32°C° 0 mm 5 mps 742 mmHg 49%
13:00 +33°C° 0 mm 4 mps 742 mmHg 47%
14:00 +34°C° 0 mm 4 mps 742 mmHg 44%
15:00 +33°C° 0 mm 4 mps 742 mmHg 47%
16:00 +33°C° 0 mm 4 mps 742 mmHg 49%
17:00 +33°C° 0 mm 4 mps 742 mmHg 52%
18:00 +30°C° 0 mm 3 mps 742 mmHg 57%
19:00 +27°C° 0 mm 3 mps 742 mmHg 61%
20:00 +25°C° 0 mm 2 mps 742 mmHg 65%
21:00 +25°C° 0.1 mm 2 mps 742 mmHg 67%
22:00 +24°C° 0.1 mm 1 mps 742 mmHg 69%
23:00 +23°C° 0.1 mm 1 mps 741 mmHg 71%
Show more

We Need Your Consent

Meteoprog and our Service Providers may store and access personal data such as cookies, device identifiers or other similar technologies on your device and process such data to personalise content and ads, as well as provide social media features and to analyse the traffic.

  • Store and/or access information on your device

    Cookies, device identifiers or other information can be stored or accessed on your device for the purposes indicated above.

  • Personalised ads and content, ad and content measurement, audience insights, and products development

    Ads and content can be personalised based on a profile. More data can be added to better personalise ads and content. Ad and content performance can be measured. Insights about the audience who saw the ads and content can be derived. Such data can be used to develop or improve user’s experience, systems and software.

By clicking ‘I Agree’ you will allow the use of indicated cookies, device identifiers, web beacons or other similar technologies. Your settings can be changed in the browser on your device.

For certain purposes, legitimate interests may be relied on, rather than consent. You can read more about this in our Privacy and Cookie Policy.